Location: Beaver City Ambulance
(40.1348°N, 99.8275°W)
Time: 07:26:44
(UTC+00:00)

Daily predictions for brighter satellites

Satellite Brightness Start Highest point End
(mag) Time Altitude Azimuth Time Altitude Azimuth Time Altitude Azimuth
Abrixas rocket 3.0 12:01:14 17° NW 12:03:05 37° NNE 12:05:45 10° E
Cosmos 1484 Rocket 3.7 12:01:47 10° NNW 12:05:02 26° WNW 12:08:13 10° SW
BREEZE-M DEB (TANK) 2.8 12:05:27 19° WSW 12:06:20 22° SW 12:08:09 10° SSE
Cosmos 1428 Rocket 4.4 12:02:11 10° SSW 12:08:23 67° W 12:14:34 10° N
Cosmos 407 Rocket 4.0 12:03:52 10° S 12:08:54 64° ESE 12:14:00 10° NNE
H-2A R/B 3.6 12:06:34 10° NNE 12:10:19 54° E 12:14:06 10° S
Cosmos 1553 Rocket 4.2 12:06:39 10° N 12:12:46 74° E 12:18:48 10° SSE
Cosmos 1626 Rocket 4.1 12:08:29 10° S 12:12:53 63° E 12:17:19 10° NNE
Cosmos 1140 Rocket 4.3 12:08:37 10° S 12:13:37 56° ESE 12:18:38 10° NNE
PSLV R/B 3.9 12:09:51 10° S 12:14:01 69° WSW 12:18:14 10° NNW
Cosmos 2278 3.8 12:10:30 10° NNW 12:16:03 59° WSW 12:21:34 10° S
Okean O Rocket 4.2 12:14:16 10° NE 12:17:55 25° E 12:21:32 10° SSE
Cosmos 2322 Rocket 3.9 12:13:22 10° N 12:18:28 33° ENE 12:23:31 10° ESE
Cosmos 2026 Rocket 4.2 12:14:12 10° SSW 12:20:23 52° W 12:26:36 10° N
SL-27 R/B 4.1 12:17:43 10° S 12:21:05 40° ESE 12:24:30 10° NNE
Cosmos 1689 Rocket 2.6 12:18:32 10° SSW 12:21:17 36° W 12:24:01 10° NNW
Meteor PRIRODA 3.8 12:17:51 10° N 12:21:23 48° WNW 12:24:55 10° SSW
Cosmos 1833 Rocket 4.0 12:17:49 10° W 12:21:47 20° NW 12:25:51 10° N
Gblst 52 Del rocket 4.5 12:17:52 10° SW 12:23:30 78° SE 12:29:49 10° NE
Meteor 2-10 Rocket 3.5 12:20:01 10° N 12:25:03 88° ENE 12:30:11 10° S
CZ-4B R/B 3.4 12:23:16 10° N 12:27:05 39° WNW 12:31:02 10° SW
Meteor 1-31 Rocket 4.1 12:26:32 10° NNW 12:29:27 20° WNW 12:32:21 10° WSW
Lacrosse 5 rocket 3.2 12:29:48 10° NW 12:31:36 13° NNW 12:33:25 10° N
ATLAS 3B R/B 3.4 12:28:44 10° WSW 12:34:28 31° NW 12:40:18 10° NNE
Meteor 2-15 4.5 12:29:20 10° N 12:35:28 87° W 12:41:31 10° S
Cosmos 1455 2.4 12:31:49 10° N 12:35:42 79° E 12:39:33 10° S
CZ-4B R/B 4.5 12:31:51 10° NNE 12:36:59 46° E 12:42:02 10° S
Cosmos 1703 3.8 12:33:42 10° S 12:37:31 63° E 12:41:22 10° NNE
NOAA 6 4.3 12:32:35 10° NNE 12:37:46 77° ESE 12:42:53 10° S
